Regional Weather Roundup
Issued by NWS

Home | Current Version | Previous Version | Graphics & Text | Print | Product List | Glossary On
Versions: 1 2 3 4 5 6 7 8 9 10 11 12 13 14 15 16 17 18 19 20 21 22 23 24 25 26 27 28 29 30 31 32 33 34 35 36 37 38 39 40 41 42 43 44 45 46 47 48 49 50
000
ASUS43 KTOP 020008
RWRKS

WEATHER ROUNDUP FOR KANSAS
NATIONAL WEATHER SERVICE GOODLAND KS
700 PM CDT WED OCT 01 2014

NOTE:  "FAIR" INDICATES FEW OR NO CLOUDS BELOW 12,000 FEET WITH NO
SIGNIFICANT WEATHER AND/OR OBSTRUCTIONS TO VISIBILITY.

KSZ001>006-013>018-027>032-041>047-020100-
NORTHWEST KANSAS

CITY           SKY/WX    TMP DP  RH WIND       PRES   REMARKS
GOODLAND       PTCLDY    71  43  36 SE3       29.80R
6HR MIN TEMP:  70; 6HR MAX TEMP:  76;

HAYS           CLEAR     73  61  64 E3        29.73S
HILL CITY      CLEAR     76  48  37 E5        29.74R
6HR MIN TEMP:  73; 6HR MAX TEMP:  81;

RUSSELL        CLEAR     73  63  70 E6        29.71S
6HR MIN TEMP:  68; 6HR MAX TEMP:  78;

$$

KSZ061>065-074>080-084>089-020100-
SOUTHWEST KANSAS

CITY           SKY/WX    TMP DP  RH WIND       PRES   REMARKS
DODGE CITY     CLEAR     76  55  48 NE8       29.74R
6HR MIN TEMP:  76; 6HR MAX TEMP:  82;

ELKHART          N/A    N/A N/A N/A MISG        N/A
GARDEN CITY    CLEAR     75  49  39 E9        29.75R
6HR MIN TEMP:  75; 6HR MAX TEMP:  81;

GREAT BEND     CLEAR     75  64  69 N7        29.71S
LIBERAL        CLEAR     81  39  22 CALM      29.76R
PRATT          CLEAR     79  63  57 N10       29.71R
$$

KSZ066>073-081>083-090>101-020100-
SOUTHEAST KANSAS

CITY           SKY/WX    TMP DP  RH WIND       PRES   REMARKS
CHANUTE        CLEAR     76  68  76 SE8       29.69F
6HR MIN TEMP:  71; 6HR MAX TEMP:  85; 6HR PCP:  0.04;

COFFEYVILLE    PTCLDY    81  69  67 S10       29.68S
6HR MIN TEMP:  72; 6HR MAX TEMP:  89;

HUTCHINSON     CLEAR     82  58  43 CALM      29.66F
6HR MIN TEMP:  82; 6HR MAX TEMP:  89;

MEDICINE LODGE   N/A     85  46  25 SW6       29.66R
NEWTON         CLEAR     82  59  44 W5        29.69S
PARSONS        LGT RAIN  78  69  73 SE5       29.70S
6HR MIN TEMP:  76; 6HR MAX TEMP:  87; 6HR PCP:  0.05;

WICHITA INTL   PTCLDY    87  60  40 S3        29.64F
6HR MIN TEMP:  83; 6HR MAX TEMP:  91;

WICHITA JABRA  PTCLDY    85  60  42 S5        29.65S
6HR MIN TEMP:  80; 6HR MAX TEMP:  89;

WICHITA MCCONL PTCLDY    87  60  39 W2        29.66R
WINFIELD       CLEAR     86  61  42 S13       29.66R
6HR MIN TEMP:  83; 6HR MAX TEMP:  92;

$$

KSZ007>012-019>026-033>040-048>060-102>105-020100-
NORTHEAST KANSAS

CITY           SKY/WX    TMP DP  RH WIND       PRES   REMARKS
CONCORDIA      MOCLDY    75  63  66 N5        29.72R
6HR MIN TEMP:  72; 6HR MAX TEMP:  82;

EMPORIA        PTCLDY    75  66  73 E7        29.67F
6HR MIN TEMP:  76; 6HR MAX TEMP:  83;

LAWRENCE       MOCLDY    75  65  70 E6        29.71S
6HR MIN TEMP:  75; 6HR MAX TEMP:  82;

MANHATTAN      MOCLDY    72  60  66 NE8       29.69R
6HR MIN TEMP:  72; 6HR MAX TEMP:  83; 6HR PCP: TRACE;

MARYSVILLE     PTCLDY    77  63  61 NE6       29.71R
OLATHE IND     MOCLDY    70  67  90 E6        29.73S
6HR MIN TEMP:  70; 6HR MAX TEMP:  80;

OLATHE EXE     MOCLDY    69  67  93 E6        29.73S
6HR MIN TEMP:  69; 6HR MAX TEMP:  80; 6HR PCP:  0.01;

SALINA         PTCLDY    79  66  64 N8        29.68S
6HR MIN TEMP:  77; 6HR MAX TEMP:  82;

TOPEKA BILLARD MOCLDY    79  69  71 E7        29.69S
6HR MIN TEMP:  79; 6HR MAX TEMP:  86;

TOPEKA FORBES  PTCLDY    79  67  66 SE8       29.69F
6HR MIN TEMP:  79; 6HR MAX TEMP:  84;

$$



USA.gov is the U.S. government's official web portal to all federal, state and local government web resources and services.